When you browse on this site, cookies collect data to enhance your experience and personalize the content and advertising you see.
Visit our Privacy Policy to learn more. By continuing to use the site, you agree to this use of cookies and data.
  • In United Kingdom
  • List of Countries
  • For 7 days
  • Water Temperature
  • Satellite Maps
  • Weather Map
  • Weather Widgets
  • user-avatar
    Login

    Hourly Weather Petyky

    Today, 19 June, Wednesday

    Time Temperature Precipitation Wind Pressure Humidity
    00:00 +18°C° 0 mm 2 mps 744 mmHg 94%
    01:00 +18°C° 0 mm 2 mps 744 mmHg 95%
    02:00 +18°C° 0 mm 3 mps 743 mmHg 95%
    03:00 +18°C° 0 mm 3 mps 743 mmHg 96%
    04:00 +17°C° 0 mm 3 mps 743 mmHg 96%
    05:00 +17°C° 0 mm 2 mps 743 mmHg 96%
    06:00 +19°C° 0 mm 3 mps 743 mmHg 93%
    07:00 +20°C° 0 mm 3 mps 743 mmHg 91%
    08:00 +21°C° 0 mm 4 mps 743 mmHg 88%
    09:00 +23°C° 0.4 mm 4 mps 743 mmHg 85%
    10:00 +25°C° 0.4 mm 4 mps 743 mmHg 82%
    11:00 +26°C° 0.4 mm 4 mps 742 mmHg 78%
    12:00 +27°C° 1.2 mm 3 mps 742 mmHg 74%
    13:00 +28°C° 1.2 mm 3 mps 742 mmHg 71%
    14:00 +28°C° 1.2 mm 3 mps 742 mmHg 67%
    15:00 +28°C° 0.8 mm 3 mps 741 mmHg 70%
    16:00 +28°C° 0.8 mm 3 mps 741 mmHg 73%
    17:00 +27°C° 0.8 mm 3 mps 741 mmHg 76%
    18:00 +26°C° 0.2 mm 3 mps 740 mmHg 80%
    19:00 +25°C° 0.2 mm 3 mps 740 mmHg 84%
    20:00 +24°C° 0.2 mm 3 mps 740 mmHg 87%
    21:00 +22°C° 0 mm 3 mps 740 mmHg 88%
    22:00 +21°C° 0 mm 2 mps 740 mmHg 88%
    23:00 +20°C° 0 mm 2 mps 740 mmHg 89%

    Tomorrow, 20 June, Thursday

    Time Temperature Precipitation Wind Pressure Humidity
    00:00 +20°C° 0 mm 2 mps 740 mmHg 89%
    01:00 +19°C° 0 mm 2 mps 740 mmHg 90%
    02:00 +19°C° 0 mm 2 mps 740 mmHg 90%
    03:00 +19°C° 0 mm 2 mps 740 mmHg 90%
    04:00 +19°C° 0 mm 2 mps 740 mmHg 90%
    05:00 +19°C° 0 mm 2 mps 740 mmHg 90%
    06:00 +21°C° 0 mm 1 mps 740 mmHg 85%
    07:00 +23°C° 0 mm 1 mps 740 mmHg 81%
    08:00 +24°C° 0 mm 1 mps 740 mmHg 77%
    09:00 +26°C° 0 mm 1 mps 740 mmHg 72%
    10:00 +27°C° 0 mm 1 mps 740 mmHg 66%
    11:00 +29°C° 0 mm 2 mps 740 mmHg 60%
    12:00 +29°C° 0.1 mm 2 mps 740 mmHg 58%
    13:00 +30°C° 0.1 mm 2 mps 740 mmHg 56%
    14:00 +30°C° 0.1 mm 2 mps 740 mmHg 54%
    15:00 +30°C° 0 mm 2 mps 740 mmHg 56%
    16:00 +30°C° 0 mm 2 mps 740 mmHg 58%
    17:00 +30°C° 0 mm 2 mps 740 mmHg 59%
    18:00 +29°C° 0.4 mm 1 mps 740 mmHg 65%
    19:00 +27°C° 0.4 mm 1 mps 740 mmHg 71%
    20:00 +25°C° 0.4 mm 1 mps 740 mmHg 77%
    21:00 +24°C° 0 mm 1 mps 740 mmHg 80%
    22:00 +23°C° 0 mm 1 mps 740 mmHg 82%
    23:00 +22°C° 0 mm 1 mps 740 mmHg 85%

    Day after tomorrow, 21 June, Friday

    Time Temperature Precipitation Wind Pressure Humidity
    00:00 +22°C° 0 mm 1 mps 740 mmHg 85%
    01:00 +22°C° 0 mm 1 mps 740 mmHg 86%
    02:00 +21°C° 0 mm 1 mps 740 mmHg 86%
    03:00 +21°C° 0 mm 1 mps 740 mmHg 86%
    04:00 +21°C° 0 mm 1 mps 740 mmHg 86%
    05:00 +21°C° 0 mm 1 mps 741 mmHg 86%
    06:00 +22°C° 0 mm 1 mps 741 mmHg 83%
    07:00 +24°C° 0 mm 1 mps 741 mmHg 80%
    08:00 +25°C° 0 mm 1 mps 741 mmHg 76%
    09:00 +26°C° 0 mm 1 mps 741 mmHg 72%
    10:00 +27°C° 0 mm 1 mps 741 mmHg 67%
    11:00 +28°C° 0 mm 1 mps 741 mmHg 63%
    12:00 +29°C° 0.3 mm 1 mps 741 mmHg 62%
    13:00 +29°C° 0.3 mm 1 mps 741 mmHg 61%
    14:00 +30°C° 0.3 mm 1 mps 741 mmHg 61%
    15:00 +30°C° 0.2 mm 1 mps 741 mmHg 61%
    16:00 +28°C° 0.2 mm 0 mps 740 mmHg 61%
    17:00 +28°C° 0.2 mm 0 mps 740 mmHg 60%
    18:00 +27°C° 0.5 mm 0 mps 740 mmHg 66%
    19:00 +27°C° 0.5 mm 1 mps 741 mmHg 71%
    20:00 +26°C° 0.5 mm 1 mps 741 mmHg 76%
    21:00 +25°C° 0.5 mm 1 mps 741 mmHg 80%
    22:00 +23°C° 0.5 mm 1 mps 741 mmHg 84%
    23:00 +22°C° 0.5 mm 1 mps 741 mmHg 87%

    22 June, Saturday

    Time Temperature Precipitation Wind Pressure Humidity
    00:00 +22°C° 0.4 mm 1 mps 741 mmHg 89%
    01:00 +21°C° 0.4 mm 1 mps 741 mmHg 90%
    02:00 +21°C° 0.4 mm 1 mps 741 mmHg 92%
    03:00 +21°C° 0.5 mm 1 mps 741 mmHg 90%
    04:00 +21°C° 0.5 mm 1 mps 741 mmHg 90%
    05:00 +20°C° 0.5 mm 1 mps 741 mmHg 91%
    06:00 +21°C° 0.1 mm 1 mps 741 mmHg 89%
    07:00 +21°C° 0.1 mm 2 mps 741 mmHg 87%
    08:00 +23°C° 0.1 mm 2 mps 742 mmHg 86%
    09:00 +24°C° 1.2 mm 3 mps 742 mmHg 85%
    10:00 +25°C° 1.2 mm 3 mps 742 mmHg 84%
    11:00 +25°C° 1.2 mm 4 mps 742 mmHg 83%
    12:00 +25°C° 0.9 mm 4 mps 742 mmHg 81%
    13:00 +26°C° 0.9 mm 3 mps 741 mmHg 80%
    14:00 +26°C° 0.9 mm 3 mps 741 mmHg 79%
    15:00 +26°C° 1 mm 2 mps 741 mmHg 78%
    16:00 +26°C° 1 mm 2 mps 741 mmHg 76%
    17:00 +26°C° 1 mm 2 mps 741 mmHg 75%
    18:00 +25°C° 0.5 mm 2 mps 741 mmHg 79%
    19:00 +24°C° 0.5 mm 2 mps 741 mmHg 84%
    20:00 +23°C° 0.5 mm 2 mps 741 mmHg 88%
    21:00 +23°C° 0.5 mm 1 mps 741 mmHg 89%
    22:00 +22°C° 0.5 mm 1 mps 741 mmHg 90%
    23:00 +19°C° 0.5 mm 0 mps 741 mmHg 91%

    23 June, Sunday

    Time Temperature Precipitation Wind Pressure Humidity
    00:00 +19°C° 0 mm 0 mps 741 mmHg 91%
    01:00 +19°C° 0 mm 0 mps 740 mmHg 91%
    02:00 +19°C° 0 mm 0 mps 740 mmHg 92%
    03:00 +20°C° 0 mm 1 mps 740 mmHg 93%
    04:00 +20°C° 0 mm 1 mps 740 mmHg 93%
    05:00 +20°C° 0 mm 1 mps 740 mmHg 94%
    06:00 +21°C° 0.1 mm 1 mps 740 mmHg 92%
    07:00 +22°C° 0.1 mm 1 mps 740 mmHg 89%
    08:00 +23°C° 0.1 mm 1 mps 741 mmHg 86%
    09:00 +24°C° 0.3 mm 2 mps 741 mmHg 81%
    10:00 +25°C° 0.3 mm 2 mps 740 mmHg 76%
    11:00 +27°C° 0.3 mm 2 mps 740 mmHg 71%
    12:00 +27°C° 0.7 mm 2 mps 740 mmHg 70%
    13:00 +27°C° 0.7 mm 3 mps 740 mmHg 69%
    14:00 +28°C° 0.7 mm 3 mps 740 mmHg 68%
    15:00 +26°C° 2 mm 4 mps 740 mmHg 75%
    16:00 +25°C° 2 mm 5 mps 740 mmHg 82%
    17:00 +22°C° 2 mm 6 mps 740 mmHg 88%
    18:00 +21°C° 0.2 mm 6 mps 740 mmHg 89%
    19:00 +20°C° 0.2 mm 5 mps 741 mmHg 89%
    20:00 +19°C° 0.2 mm 5 mps 741 mmHg 89%
    21:00 +17°C° 0 mm 5 mps 741 mmHg 89%
    22:00 +16°C° 0 mm 5 mps 741 mmHg 89%
    23:00 +16°C° 0 mm 5 mps 742 mmHg 89%

    24 June, Monday

    Time Temperature Precipitation Wind Pressure Humidity
    00:00 +16°C° 0 mm 5 mps 742 mmHg 89%
    01:00 +16°C° 0 mm 5 mps 742 mmHg 89%
    02:00 +16°C° 0 mm 5 mps 742 mmHg 88%
    03:00 +16°C° 0.1 mm 5 mps 743 mmHg 90%
    04:00 +16°C° 0.1 mm 5 mps 743 mmHg 92%
    05:00 +16°C° 0.1 mm 5 mps 743 mmHg 93%
    06:00 +15°C° 0.7 mm 5 mps 743 mmHg 94%
    07:00 +15°C° 0.7 mm 6 mps 744 mmHg 95%
    08:00 +15°C° 0.7 mm 6 mps 744 mmHg 96%
    09:00 +15°C° 0.3 mm 6 mps 745 mmHg 96%
    10:00 +15°C° 0.3 mm 6 mps 745 mmHg 95%
    11:00 +15°C° 0.3 mm 6 mps 745 mmHg 95%
    12:00 +14°C° 0.3 mm 6 mps 746 mmHg 95%
    13:00 +14°C° 0.3 mm 6 mps 746 mmHg 95%
    14:00 +14°C° 0.3 mm 6 mps 746 mmHg 95%
    15:00 +14°C° 0.1 mm 5 mps 746 mmHg 94%
    16:00 +15°C° 0.1 mm 4 mps 747 mmHg 94%
    17:00 +15°C° 0.1 mm 4 mps 747 mmHg 93%
    18:00 +16°C° 0 mm 3 mps 747 mmHg 92%
    19:00 +16°C° 0 mm 3 mps 747 mmHg 92%
    20:00 +16°C° 0 mm 2 mps 747 mmHg 91%
    21:00 +16°C° 0 mm 2 mps 748 mmHg 91%
    22:00 +16°C° 0 mm 2 mps 748 mmHg 91%
    23:00 +16°C° 0 mm 2 mps 748 mmHg 90%
    Show more